sat.trackr.live / text

‹ back to catalog

ITAMSAT (IO-26)

NORAD 22826 · 1993-061D

PAYLOAD ACTIVE UNKNOWN

§ Identity

Operator
Country
IT
Launch date
1993-09-26
Launch site
FRGUI
Launch vehicle
Mass (kg)
RCS (m²)
0.16

Purposes: comms

External: N2YO · Heavens-Above · Gunter

§ Orbital elements

Epoch: 2026-05-25T02:54:13.524768Z

Period
100.60 min
Inclination
98.6833°
Eccentricity
0.0009608
Mean motion
14.31361097 rev/d
Perigee alt
780.3 km
Apogee alt
794.1 km
Semi-major
7,165.3 km
B*
3.9953e-5
RAAN
212.4568°
Arg perigee
145.5525°
Mean anomaly
214.6283°
Rev number
70,401

§ Raw data

ITAMSAT (IO-26)1 22826U 93061D   26145.12098987  .00000061  00000+0  39953-4 0  99902 22826  98.6833 212.4568 0009608 145.5525 214.6283 14.31361097704010

JSON: /api/v1/satellites/22826 · /tle

For live sub-satellite position, see the globe view (requires WebGL).

§ Visibility from observer

Set your observer location to see the next 7 days of passes ≥ 10°. The values pass through the URL so the page stays shareable.

No JS? Fill the form by hand. The geolocation button needs JavaScript.

§ Radio — SatNOGS DB

ModeDescriptionDownlinkUplink
BPSK BPSK CW carrier 435.772 MHz
BPSK 1k2 BPSK TLM (inactive) 435.860 MHz
BPSK Mode JD (inactive) 437.822 MHz

3 transmitters · refreshed weekly from db.satnogs.org